Time,TemperatureF,DewpointF,PressureIn,WindDirection,WindDirectionDegrees,WindSpeedMPH,WindSpeedGustMPH,Humidity,HourlyPrecipIn,Conditions,Clouds,dailyrainin,SoftwareType,DateUTC
2013-02-08 00:01:00,31.0,31.0,-100.00,NNW,335,8.0,20.0,97,-99.99,,,-99.99,,2013-02-08 06:01:00,
2013-02-08 00:11:00,31.0,31.0,-100.00,NW,325,8.0,16.0,97,-99.99,,,-99.99,,2013-02-08 06:11:00,
2013-02-08 00:21:00,31.0,31.0,-100.00,NNW,340,11.0,17.0,97,-99.99,,,-99.99,,2013-02-08 06:21:00,
2013-02-08 00:32:00,31.0,31.0,-100.00,NNW,340,11.0,17.0,97,-99.99,,,-99.99,,2013-02-08 06:32:00,
2013-02-08 00:42:00,31.0,31.0,-100.00,NNW,340,6.0,17.0,97,-99.99,,,-99.99,,2013-02-08 06:42:00,
2013-02-08 00:52:00,31.0,30.0,-100.00,NNW,345,11.0,20.0,97,-99.99,,,-99.99,,2013-02-08 06:52:00,
2013-02-08 01:01:00,31.0,30.0,-100.00,NNW,345,11.0,20.0,97,-99.99,,,-99.99,,2013-02-08 07:01:00,
2013-02-08 01:11:00,31.0,30.0,-100.00,NNW,340,8.0,19.0,96,-99.99,,,-99.99,,2013-02-08 07:11:00,
2013-02-08 01:21:00,30.0,29.0,-100.00,NW,325,9.0,23.0,96,-99.99,,,-99.99,,2013-02-08 07:21:00,
2013-02-08 01:32:00,30.0,29.0,-100.00,NW,325,9.0,23.0,96,-99.99,,,-99.99,,2013-02-08 07:32:00,
2013-02-08 01:42:00,30.0,29.0,-100.00,North,0,8.0,17.0,96,-99.99,,,-99.99,,2013-02-08 07:42:00,
2013-02-08 01:52:00,30.0,29.0,-100.00,NNW,340,11.0,19.0,96,-99.99,,,-99.99,,2013-02-08 07:52:00,
2013-02-08 02:01:00,30.0,29.0,-100.00,NNW,340,11.0,19.0,96,-99.99,,,-99.99,,2013-02-08 08:01:00,
2013-02-08 02:11:00,29.0,28.0,-100.00,North,0,8.0,26.0,96,-99.99,,,-99.99,,2013-02-08 08:11:00,
2013-02-08 02:21:00,28.0,27.0,-100.00,North,0,9.0,21.0,95,-99.99,,,-99.99,,2013-02-08 08:21:00,
2013-02-08 02:32:00,28.0,27.0,-100.00,North,0,9.0,21.0,95,-99.99,,,-99.99,,2013-02-08 08:32:00,
2013-02-08 02:42:00,28.0,27.0,-100.00,NNW,345,9.0,19.0,95,-99.99,,,-99.99,,2013-02-08 08:42:00,
2013-02-08 02:52:00,28.0,27.0,-100.00,NNW,345,8.0,19.0,94,-99.99,,,-99.99,,2013-02-08 08:52:00,
2013-02-08 03:03:00,28.0,27.0,-100.00,NNW,345,8.0,19.0,94,-99.99,,,-99.99,,2013-02-08 09:03:00,
2013-02-08 03:11:00,27.0,26.0,-100.00,North,0,8.0,29.0,93,-99.99,,,-99.99,,2013-02-08 09:11:00,
2013-02-08 03:21:00,27.0,25.0,-100.00,North,0,9.0,17.0,92,-99.99,,,-99.99,,2013-02-08 09:21:00,
2013-02-08 03:32:00,27.0,25.0,-100.00,North,0,9.0,17.0,92,-99.99,,,-99.99,,2013-02-08 09:32:00,
2013-02-08 03:42:00,26.0,24.0,-100.00,North,0,13.0,20.0,91,-99.99,,,-99.99,,2013-02-08 09:42:00,
2013-02-08 03:52:00,26.0,23.0,-100.00,NNW,345,8.0,20.0,91,-99.99,,,-99.99,,2013-02-08 09:52:00,
2013-02-08 04:01:00,26.0,23.0,-100.00,NNW,345,8.0,20.0,91,-99.99,,,-99.99,,2013-02-08 10:01:00,
2013-02-08 04:11:00,25.0,22.0,-100.00,NNW,340,9.0,20.0,90,-99.99,,,-99.99,,2013-02-08 10:11:00,
2013-02-08 04:22:00,25.0,22.0,-100.00,North,0,5.0,18.0,89,-99.99,,,-99.99,,2013-02-08 10:22:00,
2013-02-08 04:32:00,25.0,22.0,-100.00,North,0,5.0,18.0,89,-99.99,,,-99.99,,2013-02-08 10:32:00,
2013-02-08 04:42:00,24.0,21.0,-100.00,North,0,11.0,20.0,88,-99.99,,,-99.99,,2013-02-08 10:42:00,
2013-02-08 04:52:00,24.0,21.0,-100.00,North,0,9.0,19.0,87,-99.99,,,-99.99,,2013-02-08 10:52:00,
2013-02-08 05:01:00,24.0,21.0,-100.00,North,0,9.0,19.0,87,-99.99,,,-99.99,,2013-02-08 11:01:00,
2013-02-08 05:11:00,24.0,20.0,-100.00,North,0,11.0,20.0,87,-99.99,,,-99.99,,2013-02-08 11:11:00,
2013-02-08 05:21:00,24.0,20.0,-100.00,NNW,330,9.0,17.0,86,-99.99,,,-99.99,,2013-02-08 11:21:00,
2013-02-08 05:32:00,24.0,20.0,-100.00,NNW,330,9.0,17.0,86,-99.99,,,-99.99,,2013-02-08 11:32:00,
2013-02-08 05:42:00,24.0,20.0,-100.00,North,355,11.0,19.0,86,-99.99,,,-99.99,,2013-02-08 11:42:00,
2013-02-08 05:52:00,24.0,20.0,-100.00,NNW,340,10.0,19.0,85,-99.99,,,-99.99,,2013-02-08 11:52:00,
2013-02-08 06:02:00,24.0,20.0,-100.00,NNW,340,10.0,19.0,85,-99.99,,,-99.99,,2013-02-08 12:02:00,
2013-02-08 06:11:00,23.0,20.0,-100.00,North,0,11.0,16.0,85,-99.99,,,-99.99,,2013-02-08 12:11:00,
2013-02-08 06:22:00,23.0,19.0,-100.00,North,0,8.0,17.0,84,-99.99,,,-99.99,,2013-02-08 12:22:00,
2013-02-08 06:33:00,23.0,19.0,-100.00,North,0,8.0,17.0,84,-99.99,,,-99.99,,2013-02-08 12:33:00,
2013-02-08 06:42:00,23.0,19.0,-100.00,North,5,12.0,22.0,84,-99.99,,,-99.99,,2013-02-08 12:42:00,
2013-02-08 06:52:00,24.0,19.0,-100.00,North,5,7.0,23.0,84,-99.99,,,-99.99,,2013-02-08 12:52:00,
2013-02-08 07:01:00,24.0,19.0,-100.00,North,5,7.0,23.0,84,-99.99,,,-99.99,,2013-02-08 13:01:00,
2013-02-08 07:11:00,24.0,20.0,-100.00,North,5,8.0,17.0,84,-99.99,,,-99.99,,2013-02-08 13:11:00,
2013-02-08 07:22:00,24.0,20.0,-100.00,North,0,9.0,16.0,84,-99.99,,,-99.99,,2013-02-08 13:22:00,
2013-02-08 07:32:00,25.0,20.0,-100.00,North,0,8.0,19.0,84,-99.99,,,-99.99,,2013-02-08 13:32:00,
2013-02-08 07:42:00,25.0,20.0,-100.00,North,0,8.0,19.0,84,-99.99,,,-99.99,,2013-02-08 13:42:00,
2013-02-08 07:52:00,25.0,20.0,-100.00,North,0,6.0,19.0,83,-99.99,,,-99.99,,2013-02-08 13:52:00,
2013-02-08 08:02:00,25.0,20.0,-100.00,North,0,6.0,19.0,83,-99.99,,,-99.99,,2013-02-08 14:02:00,
2013-02-08 08:11:00,25.0,21.0,-100.00,North,0,7.0,17.0,83,-99.99,,,-99.99,,2013-02-08 14:11:00,
2013-02-08 08:22:00,25.0,21.0,-100.00,North,355,6.0,21.0,83,-99.99,,,-99.99,,2013-02-08 14:22:00,
2013-02-08 08:32:00,25.0,21.0,-100.00,North,355,6.0,21.0,83,-99.99,,,-99.99,,2013-02-08 14:32:00,
2013-02-08 08:42:00,25.0,21.0,-100.00,North,0,9.0,17.0,82,-99.99,,,-99.99,,2013-02-08 14:42:00,
2013-02-08 08:52:00,26.0,21.0,-100.00,NNE,20,9.0,17.0,82,-99.99,,,-99.99,,2013-02-08 14:52:00,
2013-02-08 09:02:00,26.0,21.0,-100.00,NNE,20,9.0,17.0,82,-99.99,,,-99.99,,2013-02-08 15:02:00,
2013-02-08 09:11:00,26.0,21.0,-100.00,NNW,335,4.0,20.0,82,-99.99,,,-99.99,,2013-02-08 15:11:00,
2013-02-08 09:22:00,26.0,21.0,-100.00,North,0,8.0,17.0,82,-99.99,,,-99.99,,2013-02-08 15:22:00,
2013-02-08 09:32:00,26.0,21.0,-100.00,North,0,8.0,17.0,82,-99.99,,,-99.99,,2013-02-08 15:32:00,
2013-02-08 09:42:00,26.0,21.0,-100.00,NNW,330,5.0,16.0,82,-99.99,,,-99.99,,2013-02-08 15:42:00,
2013-02-08 09:52:00,26.0,21.0,-100.00,North,0,5.0,12.0,81,-99.99,,,-99.99,,2013-02-08 15:52:00,
2013-02-08 10:01:00,26.0,21.0,-100.00,North,0,5.0,12.0,81,-99.99,,,-99.99,,2013-02-08 16:01:00,
2013-02-08 10:11:00,26.0,21.0,-100.00,NNE,15,14.0,17.0,81,-99.99,,,-99.99,,2013-02-08 16:11:00,
2013-02-08 10:22:00,27.0,21.0,-100.00,NNE,25,10.0,15.0,80,-99.99,,,-99.99,,2013-02-08 16:22:00,
2013-02-08 10:32:00,27.0,21.0,-100.00,NNE,25,10.0,15.0,80,-99.99,,,-99.99,,2013-02-08 16:32:00,
2013-02-08 10:42:00,27.0,21.0,-100.00,North,0,6.0,19.0,80,-99.99,,,-99.99,,2013-02-08 16:42:00,
2013-02-08 10:52:00,27.0,21.0,-100.00,North,0,6.0,19.0,80,-99.99,,,-99.99,,2013-02-08 16:52:00,
2013-02-08 11:12:00,27.0,21.0,-100.00,NNW,340,8.0,15.0,79,-99.99,,,-99.99,,2013-02-08 17:12:00,
2013-02-08 11:23:00,27.0,21.0,-100.00,North,10,10.0,15.0,79,-99.99,,,-99.99,,2013-02-08 17:23:00,
2013-02-08 11:32:00,27.0,21.0,-100.00,North,10,10.0,15.0,79,-99.99,,,-99.99,,2013-02-08 17:32:00,
2013-02-08 11:42:00,28.0,22.0,-100.00,North,0,4.0,16.0,79,-99.99,,,-99.99,,2013-02-08 17:42:00,
2013-02-08 11:53:00,28.0,22.0,-100.00,NW,325,10.0,15.0,78,-99.99,,,-99.99,,2013-02-08 17:53:00,
2013-02-08 12:02:00,28.0,22.0,-100.00,NW,325,10.0,15.0,78,-99.99,,,-99.99,,2013-02-08 18:02:00,
2013-02-08 12:12:00,28.0,22.0,-100.00,North,0,8.0,15.0,77,-99.99,,,-99.99,,2013-02-08 18:12:00,
2013-02-08 12:24:00,29.0,22.0,-100.00,NNW,340,10.0,17.0,76,-99.99,,,-99.99,,2013-02-08 18:24:00,
2013-02-08 12:35:00,29.0,22.0,-100.00,NNW,340,10.0,17.0,76,-99.99,,,-99.99,,2013-02-08 18:35:00,
2013-02-08 12:43:00,29.0,23.0,-100.00,NNW,330,4.0,14.0,75,-99.99,,,-99.99,,2013-02-08 18:43:00,
2013-02-08 12:52:00,29.0,22.0,-100.00,North,350,10.0,19.0,75,-99.99,,,-99.99,,2013-02-08 18:52:00,
2013-02-08 13:02:00,29.0,22.0,-100.00,North,350,10.0,19.0,75,-99.99,,,-99.99,,2013-02-08 19:02:00,
2013-02-08 13:11:00,29.0,22.0,-100.00,NNW,335,8.0,19.0,74,-99.99,,,-99.99,,2013-02-08 19:11:00,
2013-02-08 13:22:00,29.0,21.0,-100.00,NNW,335,9.0,20.0,73,-99.99,,,-99.99,,2013-02-08 19:22:00,
2013-02-08 13:32:00,29.0,21.0,-100.00,NNW,335,9.0,20.0,73,-99.99,,,-99.99,,2013-02-08 19:32:00,
2013-02-08 13:42:00,29.0,22.0,-100.00,NW,325,9.0,17.0,73,-99.99,,,-99.99,,2013-02-08 19:42:00,
2013-02-08 13:52:00,29.0,22.0,-100.00,North,0,7.0,15.0,73,-99.99,,,-99.99,,2013-02-08 19:52:00,
2013-02-08 14:02:00,29.0,22.0,-100.00,North,0,7.0,15.0,73,-99.99,,,-99.99,,2013-02-08 20:02:00,
2013-02-08 14:11:00,29.0,22.0,-100.00,North,0,8.0,13.0,73,-99.99,,,-99.99,,2013-02-08 20:11:00,
2013-02-08 14:22:00,29.0,22.0,-100.00,NW,320,11.0,15.0,73,-99.99,,,-99.99,,2013-02-08 20:22:00,
2013-02-08 14:32:00,29.0,22.0,-100.00,NW,320,11.0,15.0,73,-99.99,,,-99.99,,2013-02-08 20:32:00,
2013-02-08 14:42:00,29.0,22.0,-100.00,North,350,6.0,17.0,73,-99.99,,,-99.99,,2013-02-08 20:42:00,
2013-02-08 14:52:00,29.0,21.0,-100.00,NNW,330,8.0,15.0,73,-99.99,,,-99.99,,2013-02-08 20:52:00,
2013-02-08 15:02:00,29.0,21.0,-100.00,NNW,330,8.0,15.0,73,-99.99,,,-99.99,,2013-02-08 21:02:00,
2013-02-08 15:11:00,29.0,21.0,-100.00,NNW,340,8.0,14.0,73,-99.99,,,-99.99,,2013-02-08 21:11:00,
2013-02-08 15:22:00,28.0,21.0,-100.00,NNW,335,6.0,14.0,73,-99.99,,,-99.99,,2013-02-08 21:22:00,
2013-02-08 15:32:00,28.0,21.0,-100.00,NNW,335,6.0,14.0,73,-99.99,,,-99.99,,2013-02-08 21:32:00,
2013-02-08 15:42:00,28.0,21.0,-100.00,North,10,5.0,11.0,73,-99.99,,,-99.99,,2013-02-08 21:42:00,
2013-02-08 15:52:00,28.0,21.0,-100.00,NW,325,7.0,14.0,73,-99.99,,,-99.99,,2013-02-08 21:52:00,
2013-02-08 16:02:00,28.0,21.0,-100.00,NW,325,7.0,14.0,73,-99.99,,,-99.99,,2013-02-08 22:02:00,
2013-02-08 16:11:00,28.0,21.0,-100.00,North,0,4.0,10.0,74,-99.99,,,-99.99,,2013-02-08 22:11:00,
2013-02-08 16:22:00,28.0,21.0,-100.00,North,350,6.0,11.0,74,-99.99,,,-99.99,,2013-02-08 22:22:00,
2013-02-08 16:32:00,28.0,21.0,-100.00,North,350,6.0,11.0,74,-99.99,,,-99.99,,2013-02-08 22:32:00,
2013-02-08 16:42:00,28.0,21.0,-100.00,North,0,6.0,11.0,74,-99.99,,,-99.99,,2013-02-08 22:42:00,
2013-02-08 16:52:00,28.0,21.0,-100.00,North,0,7.0,11.0,74,-99.99,,,-99.99,,2013-02-08 22:52:00,
2013-02-08 17:01:00,28.0,21.0,-100.00,North,0,7.0,11.0,74,-99.99,,,-99.99,,2013-02-08 23:01:00,
2013-02-08 17:11:00,28.0,21.0,-100.00,North,0,6.0,11.0,74,-99.99,,,-99.99,,2013-02-08 23:11:00,
2013-02-08 17:21:00,28.0,21.0,-100.00,North,350,3.0,9.0,75,-99.99,,,-99.99,,2013-02-08 23:21:00,
2013-02-08 17:32:00,28.0,21.0,-100.00,North,350,3.0,9.0,75,-99.99,,,-99.99,,2013-02-08 23:32:00,
2013-02-08 17:42:00,28.0,21.0,-100.00,NNW,335,5.0,8.0,75,-99.99,,,-99.99,,2013-02-08 23:42:00,
2013-02-08 17:52:00,28.0,21.0,-100.00,North,0,5.0,7.0,75,-99.99,,,-99.99,,2013-02-08 23:52:00,
2013-02-08 18:02:00,28.0,21.0,-100.00,North,0,5.0,7.0,75,-99.99,,,-99.99,,2013-02-09 00:02:00,
2013-02-08 18:11:00,27.0,21.0,-100.00,North,350,3.0,7.0,76,-99.99,,,-99.99,,2013-02-09 00:11:00,
2013-02-08 18:22:00,27.0,21.0,-100.00,North,355,4.0,8.0,76,-99.99,,,-99.99,,2013-02-09 00:22:00,
2013-02-08 18:32:00,27.0,21.0,-100.00,North,350,1.0,6.0,77,-99.99,,,-99.99,,2013-02-09 00:32:00,
2013-02-08 18:42:00,27.0,21.0,-100.00,North,350,1.0,6.0,77,-99.99,,,-99.99,,2013-02-09 00:42:00,
2013-02-08 18:52:00,27.0,21.0,-100.00,North,0,4.0,8.0,77,-99.99,,,-99.99,,2013-02-09 00:52:00,
2013-02-08 19:01:00,27.0,21.0,-100.00,North,0,4.0,8.0,77,-99.99,,,-99.99,,2013-02-09 01:01:00,
2013-02-08 19:11:00,27.0,20.0,-100.00,NNE,30,8.0,9.0,77,-99.99,,,-99.99,,2013-02-09 01:11:00,
2013-02-08 19:22:00,26.0,21.0,-100.00,NE,40,4.0,8.0,78,-99.99,,,-99.99,,2013-02-09 01:22:00,
2013-02-08 19:32:00,26.0,21.0,-100.00,NE,40,4.0,8.0,78,-99.99,,,-99.99,,2013-02-09 01:32:00,
2013-02-08 19:42:00,26.0,21.0,-100.00,NE,45,4.0,7.0,79,-99.99,,,-99.99,,2013-02-09 01:42:00,
2013-02-08 19:52:00,26.0,21.0,-100.00,NE,35,4.0,6.0,79,-99.99,,,-99.99,,2013-02-09 01:52:00,
2013-02-08 20:01:00,26.0,21.0,-100.00,NE,35,4.0,6.0,79,-99.99,,,-99.99,,2013-02-09 02:01:00,
2013-02-08 20:11:00,26.0,21.0,-100.00,NE,35,4.0,6.0,79,-99.99,,,-99.99,,2013-02-09 02:11:00,
2013-02-08 20:21:00,26.0,20.0,-100.00,NNE,30,5.0,7.0,79,-99.99,,,-99.99,,2013-02-09 02:21:00,
2013-02-08 20:32:00,26.0,20.0,-100.00,NNE,30,5.0,7.0,79,-99.99,,,-99.99,,2013-02-09 02:32:00,
2013-02-08 20:42:00,26.0,21.0,-100.00,East,85,4.0,6.0,80,-99.99,,,-99.99,,2013-02-09 02:42:00,
2013-02-08 20:53:00,26.0,21.0,-100.00,NE,35,2.0,5.0,80,-99.99,,,-99.99,,2013-02-09 02:53:00,
2013-02-08 21:02:00,26.0,21.0,-100.00,NE,35,2.0,5.0,80,-99.99,,,-99.99,,2013-02-09 03:02:00,
2013-02-08 21:11:00,26.0,21.0,-100.00,NE,55,1.0,4.0,80,-99.99,,,-99.99,,2013-02-09 03:11:00,
2013-02-08 21:22:00,26.0,21.0,-100.00,SE,140,0.0,2.0,80,-99.99,,,-99.99,,2013-02-09 03:22:00,
2013-02-08 21:32:00,26.0,21.0,-100.00,SE,140,0.0,2.0,80,-99.99,,,-99.99,,2013-02-09 03:32:00,
2013-02-08 21:42:00,26.0,21.0,-100.00,NE,50,4.0,7.0,80,-99.99,,,-99.99,,2013-02-09 03:42:00,
2013-02-08 21:53:00,26.0,21.0,-100.00,East,95,4.0,6.0,81,-99.99,,,-99.99,,2013-02-09 03:53:00,
2013-02-08 22:02:00,26.0,21.0,-100.00,East,95,4.0,6.0,81,-99.99,,,-99.99,,2013-02-09 04:02:00,
2013-02-08 22:12:00,26.0,21.0,-100.00,NE,40,2.0,5.0,81,-99.99,,,-99.99,,2013-02-09 04:12:00,
2013-02-08 22:23:00,26.0,21.0,-100.00,East,90,2.0,6.0,81,-99.99,,,-99.99,,2013-02-09 04:23:00,
2013-02-08 22:32:00,26.0,21.0,-100.00,East,90,2.0,6.0,81,-99.99,,,-99.99,,2013-02-09 04:32:00,
2013-02-08 22:42:00,26.0,21.0,-100.00,SSE,160,3.0,8.0,82,-99.99,,,-99.99,,2013-02-09 04:42:00,
2013-02-08 22:52:00,26.0,21.0,-100.00,SSE,165,4.0,7.0,82,-99.99,,,-99.99,,2013-02-09 04:52:00,
2013-02-08 23:02:00,26.0,21.0,-100.00,SSE,165,4.0,7.0,82,-99.99,,,-99.99,,2013-02-09 05:02:00,
2013-02-08 23:12:00,26.0,21.0,-100.00,SE,135,3.0,8.0,82,-99.99,,,-99.99,,2013-02-09 05:12:00,
2013-02-08 23:22:00,26.0,21.0,-100.00,East,90,0.0,6.0,83,-99.99,,,-99.99,,2013-02-09 05:22:00,
2013-02-08 23:32:00,26.0,21.0,-100.00,East,90,0.0,6.0,83,-99.99,,,-99.99,,2013-02-09 05:32:00,
2013-02-08 23:42:00,26.0,21.0,-100.00,SSE,160,3.0,5.0,83,-99.99,,,-99.99,,2013-02-09 05:42:00,
2013-02-08 23:52:00,26.0,21.0,-100.00,South,180,1.0,5.0,83,-99.99,,,-99.99,,2013-02-09 05:52:00,